Year,Month,Day,Hour,Minute,Value (Times are PST for temperature in C)
2008,08,18,00,00,19.90
2008,08,18,00,01,19.90
2008,08,18,00,02,19.90
2008,08,18,00,03,19.90
2008,08,18,00,04,19.90
2008,08,18,00,05,19.90
2008,08,18,00,06,19.90
2008,08,18,00,07,19.90
2008,08,18,00,08,19.90
2008,08,18,00,09,19.90
2008,08,18,00,10,19.90
2008,08,18,00,11,19.90
2008,08,18,00,12,19.90
2008,08,18,00,13,20.00
2008,08,18,00,14,20.00
2008,08,18,00,15,20.00
2008,08,18,00,16,20.00
2008,08,18,00,17,19.90
2008,08,18,00,18,19.90
2008,08,18,00,19,19.90
2008,08,18,00,20,19.80
2008,08,18,00,21,19.80
2008,08,18,00,22,19.80
2008,08,18,00,23,19.70
2008,08,18,00,24,19.70
2008,08,18,00,25,19.70
2008,08,18,00,26,19.70
2008,08,18,00,27,19.70
2008,08,18,00,28,19.60
2008,08,18,00,29,19.60
2008,08,18,00,30,19.60
2008,08,18,00,31,19.60
2008,08,18,00,32,19.60
2008,08,18,00,33,19.60
2008,08,18,00,34,19.60
2008,08,18,00,35,19.60
2008,08,18,00,36,19.60
2008,08,18,00,37,19.60
2008,08,18,00,38,19.60
2008,08,18,00,39,19.70
2008,08,18,00,40,19.70
2008,08,18,00,41,19.70
2008,08,18,00,42,19.80
2008,08,18,00,43,19.80
2008,08,18,00,44,19.90
2008,08,18,00,45,19.90
2008,08,18,00,46,20.00
2008,08,18,00,47,20.00
2008,08,18,00,48,20.10
2008,08,18,00,49,20.20
2008,08,18,00,50,20.20
2008,08,18,00,51,20.30
2008,08,18,00,52,20.40
2008,08,18,00,53,20.40
2008,08,18,00,54,20.50
2008,08,18,00,55,20.60
2008,08,18,00,56,20.60
2008,08,18,00,57,20.50
2008,08,18,00,58,20.30
2008,08,18,00,59,20.20
2008,08,18,01,00,20.00
2008,08,18,01,01,19.90
2008,08,18,01,02,19.80
2008,08,18,01,03,19.80
2008,08,18,01,04,19.70
2008,08,18,01,05,19.70
2008,08,18,01,06,19.60
2008,08,18,01,07,19.60
2008,08,18,01,08,19.50
2008,08,18,01,09,19.50
2008,08,18,01,10,19.40
2008,08,18,01,11,19.40
2008,08,18,01,12,19.30
2008,08,18,01,13,19.30
2008,08,18,01,14,19.30
2008,08,18,01,15,19.30
2008,08,18,01,16,19.20
2008,08,18,01,17,19.20
2008,08,18,01,18,19.20
2008,08,18,01,19,19.20
2008,08,18,01,20,19.20
2008,08,18,01,21,19.20
2008,08,18,01,22,19.20
2008,08,18,01,23,19.20
2008,08,18,01,24,19.20
2008,08,18,01,25,19.20
2008,08,18,01,26,19.10
2008,08,18,01,27,19.10
2008,08,18,01,28,19.10
2008,08,18,01,29,19.10
2008,08,18,01,30,19.10
2008,08,18,01,31,19.10
2008,08,18,01,32,19.10
2008,08,18,01,33,19.10
2008,08,18,01,34,19.10
2008,08,18,01,35,19.10
2008,08,18,01,36,19.10
2008,08,18,01,37,19.10
2008,08,18,01,38,19.10
2008,08,18,01,39,19.10
2008,08,18,01,40,19.20
2008,08,18,01,41,19.20
2008,08,18,01,42,19.20
2008,08,18,01,43,19.20
2008,08,18,01,44,19.20
2008,08,18,01,45,19.20
2008,08,18,01,46,19.20
2008,08,18,01,47,19.20
2008,08,18,01,48,19.20
2008,08,18,01,49,19.20
2008,08,18,01,50,19.30
2008,08,18,01,51,19.30
2008,08,18,01,52,19.40
2008,08,18,01,53,19.40
2008,08,18,01,54,19.40
2008,08,18,01,55,19.50
2008,08,18,01,56,19.50
2008,08,18,01,57,19.50
2008,08,18,01,58,19.60
2008,08,18,01,59,19.60
2008,08,18,02,00,19.60
2008,08,18,02,01,19.60
2008,08,18,02,02,19.60
2008,08,18,02,03,19.60
2008,08,18,02,04,19.60
2008,08,18,02,05,19.60
2008,08,18,02,06,19.60
2008,08,18,02,07,19.60
2008,08,18,02,08,19.70
2008,08,18,02,09,19.70
2008,08,18,02,10,19.70
2008,08,18,02,11,19.70
2008,08,18,02,12,19.70
2008,08,18,02,13,19.70
2008,08,18,02,14,19.70
2008,08,18,02,15,19.70
2008,08,18,02,16,19.70
2008,08,18,02,17,19.70
2008,08,18,02,18,19.70
2008,08,18,02,19,19.70
2008,08,18,02,20,19.70
2008,08,18,02,21,19.80
2008,08,18,02,22,19.80
2008,08,18,02,23,19.90
2008,08,18,02,24,19.90
2008,08,18,02,25,20.00
2008,08,18,02,26,20.10
2008,08,18,02,27,20.10
2008,08,18,02,28,20.20
2008,08,18,02,29,20.20
2008,08,18,02,30,20.30
2008,08,18,02,31,20.30
2008,08,18,02,32,20.20
2008,08,18,02,33,20.20
2008,08,18,02,34,20.00
2008,08,18,02,35,19.90
2008,08,18,02,36,19.80
2008,08,18,02,37,19.80
2008,08,18,02,38,19.70
2008,08,18,02,39,19.70
2008,08,18,02,40,19.60
2008,08,18,02,41,19.60
2008,08,18,02,42,19.60
2008,08,18,02,43,19.50
2008,08,18,02,44,19.50
2008,08,18,02,45,19.40
2008,08,18,02,46,19.40
2008,08,18,02,47,19.40
2008,08,18,02,48,19.30
2008,08,18,02,49,19.30
2008,08,18,02,50,19.30
2008,08,18,02,51,19.20
2008,08,18,02,52,19.20
2008,08,18,02,53,19.20
2008,08,18,02,54,19.10
2008,08,18,02,55,19.10
2008,08,18,02,56,19.00
2008,08,18,02,57,19.00
2008,08,18,02,58,19.00
2008,08,18,02,59,18.90
2008,08,18,03,00,18.90
2008,08,18,03,01,18.90
2008,08,18,03,02,18.90
2008,08,18,03,03,18.90
2008,08,18,03,04,19.00
2008,08,18,03,05,19.00
2008,08,18,03,06,19.00
2008,08,18,03,07,19.00
2008,08,18,03,08,19.00
2008,08,18,03,09,19.00
2008,08,18,03,10,19.10
2008,08,18,03,11,19.10
2008,08,18,03,12,19.10
2008,08,18,03,13,19.10
2008,08,18,03,14,19.10
2008,08,18,03,15,19.10
2008,08,18,03,16,19.10
2008,08,18,03,17,19.10
2008,08,18,03,18,19.10
2008,08,18,03,19,19.10
2008,08,18,03,20,19.10
2008,08,18,03,21,19.00
2008,08,18,03,22,19.00
2008,08,18,03,23,19.00
2008,08,18,03,24,19.00
2008,08,18,03,25,18.90
2008,08,18,03,26,18.90
2008,08,18,03,27,18.90
2008,08,18,03,28,18.90
2008,08,18,03,29,18.90
2008,08,18,03,30,18.90
2008,08,18,03,31,19.00
2008,08,18,03,32,19.00
2008,08,18,03,33,19.00
2008,08,18,03,34,19.10
2008,08,18,03,35,19.10
2008,08,18,03,36,19.10
2008,08,18,03,37,19.10
2008,08,18,03,38,19.20
2008,08,18,03,39,19.20
2008,08,18,03,40,19.20
2008,08,18,03,41,19.20
2008,08,18,03,42,19.20
2008,08,18,03,43,19.20
2008,08,18,03,44,19.20
2008,08,18,03,45,19.20
2008,08,18,03,46,19.20
2008,08,18,03,47,19.20
2008,08,18,03,48,19.30
2008,08,18,03,49,19.30
2008,08,18,03,50,19.30
2008,08,18,03,51,19.40
2008,08,18,03,52,19.30
2008,08,18,03,53,19.30
2008,08,18,03,54,19.30
2008,08,18,03,55,19.20
2008,08,18,03,56,19.20
2008,08,18,03,57,19.10
2008,08,18,03,58,19.10
2008,08,18,03,59,19.00
2008,08,18,04,00,18.90
2008,08,18,04,01,18.90
2008,08,18,04,02,18.80
2008,08,18,04,03,18.80
2008,08,18,04,04,18.80
2008,08,18,04,05,18.80
2008,08,18,04,06,18.70
2008,08,18,04,07,18.70
2008,08,18,04,08,18.70
2008,08,18,04,09,18.70
2008,08,18,04,10,18.70
2008,08,18,04,11,18.60
2008,08,18,04,12,18.60
2008,08,18,04,13,18.60
2008,08,18,04,14,18.60
2008,08,18,04,15,18.50
2008,08,18,04,16,18.50
2008,08,18,04,17,18.50
2008,08,18,04,18,18.40
2008,08,18,04,19,18.40
2008,08,18,04,20,18.40
2008,08,18,04,21,18.40
2008,08,18,04,22,18.40
2008,08,18,04,23,18.40
2008,08,18,04,24,18.40
2008,08,18,04,25,18.40
2008,08,18,04,26,18.40
2008,08,18,04,27,18.40
2008,08,18,04,28,18.40
2008,08,18,04,29,18.40
2008,08,18,04,30,18.40
2008,08,18,04,31,18.30
2008,08,18,04,32,18.30
2008,08,18,04,33,18.30
2008,08,18,04,34,18.30
2008,08,18,04,35,18.30
2008,08,18,04,36,18.30
2008,08,18,04,37,18.30
2008,08,18,04,38,18.30
2008,08,18,04,39,18.30
2008,08,18,04,40,18.30
2008,08,18,04,41,18.30
2008,08,18,04,42,18.30
2008,08,18,04,43,18.30
2008,08,18,04,44,18.30
2008,08,18,04,45,18.30
2008,08,18,04,46,18.30
2008,08,18,04,47,18.20
2008,08,18,04,48,18.20
2008,08,18,04,49,18.20
2008,08,18,04,50,18.20
2008,08,18,04,51,18.20
2008,08,18,04,52,18.20
2008,08,18,04,53,18.20
2008,08,18,04,54,18.10
2008,08,18,04,55,18.10
2008,08,18,04,56,18.10
2008,08,18,04,57,18.20
2008,08,18,04,58,18.20
2008,08,18,04,59,18.20
2008,08,18,05,00,18.30
2008,08,18,05,01,18.30
2008,08,18,05,02,18.30
2008,08,18,05,03,18.30
2008,08,18,05,04,18.40
2008,08,18,05,05,18.40
2008,08,18,05,06,18.40
2008,08,18,05,07,18.40
2008,08,18,05,08,18.40
2008,08,18,05,09,18.40
2008,08,18,05,10,18.40
2008,08,18,05,11,18.40
2008,08,18,05,12,18.50
2008,08,18,05,13,18.60
2008,08,18,05,14,18.60
2008,08,18,05,15,18.70
2008,08,18,05,16,18.70
2008,08,18,05,17,18.80
2008,08,18,05,18,18.80
2008,08,18,05,19,18.90
2008,08,18,05,20,19.00
2008,08,18,05,21,19.10
2008,08,18,05,22,19.20
2008,08,18,05,23,19.30
2008,08,18,05,24,19.30
2008,08,18,05,25,19.40
2008,08,18,05,26,19.40
2008,08,18,05,27,19.40
2008,08,18,05,28,19.50
2008,08,18,05,29,19.50
2008,08,18,05,30,19.60
2008,08,18,05,31,19.60
2008,08,18,05,32,19.60
2008,08,18,05,33,19.60
2008,08,18,05,34,19.60
2008,08,18,05,35,19.60
2008,08,18,05,36,19.60
2008,08,18,05,37,19.50
2008,08,18,05,38,19.50
2008,08,18,05,39,19.40
2008,08,18,05,40,19.40
2008,08,18,05,41,19.30
2008,08,18,05,42,19.20
2008,08,18,05,43,19.20
2008,08,18,05,44,19.20
2008,08,18,05,45,19.30
2008,08,18,05,46,19.30
2008,08,18,05,47,19.40
2008,08,18,05,48,19.50
2008,08,18,05,49,19.50
2008,08,18,05,50,19.60
2008,08,18,05,51,19.70
2008,08,18,05,52,19.70
2008,08,18,05,53,19.80
2008,08,18,05,54,19.80
2008,08,18,05,55,19.90
2008,08,18,05,56,20.00
2008,08,18,05,57,20.00
2008,08,18,05,58,20.10
2008,08,18,05,59,20.20
2008,08,18,06,00,20.20
2008,08,18,06,01,20.20
2008,08,18,06,02,20.30
2008,08,18,06,03,20.30
2008,08,18,06,04,20.30
2008,08,18,06,05,20.30
2008,08,18,06,06,20.40
2008,08,18,06,07,20.40
2008,08,18,06,08,20.40
2008,08,18,06,09,20.40
2008,08,18,06,10,20.40
2008,08,18,06,11,20.40
2008,08,18,06,12,20.30
2008,08,18,06,13,20.20
2008,08,18,06,14,20.20
2008,08,18,06,15,20.10
2008,08,18,06,16,20.00
2008,08,18,06,17,19.90
2008,08,18,06,18,19.80
2008,08,18,06,19,19.80
2008,08,18,06,20,19.70
2008,08,18,06,21,19.60
2008,08,18,06,22,19.60
2008,08,18,06,23,19.50
2008,08,18,06,24,19.50
2008,08,18,06,25,19.40
2008,08,18,06,26,19.40
2008,08,18,06,27,19.40
2008,08,18,06,28,19.30
2008,08,18,06,29,19.30
2008,08,18,06,30,19.30
2008,08,18,06,31,19.30
2008,08,18,06,32,19.30
2008,08,18,06,33,19.40
2008,08,18,06,34,19.40
2008,08,18,06,35,19.50
2008,08,18,06,36,19.50
2008,08,18,06,37,19.60
2008,08,18,06,38,19.60
2008,08,18,06,39,19.50
2008,08,18,06,40,19.40
2008,08,18,06,41,19.40
2008,08,18,06,42,19.30
2008,08,18,06,43,19.20
2008,08,18,06,44,19.10
2008,08,18,06,45,19.00
2008,08,18,06,46,19.00
2008,08,18,06,47,18.90
2008,08,18,06,48,18.90
2008,08,18,06,49,18.90
2008,08,18,06,50,18.80
2008,08,18,06,51,18.80
2008,08,18,06,52,18.80
2008,08,18,06,53,18.80
2008,08,18,06,54,18.70
2008,08,18,06,55,18.60
2008,08,18,06,56,18.50
2008,08,18,06,57,18.40
2008,08,18,06,58,18.30
2008,08,18,06,59,18.20
2008,08,18,07,00,18.20
2008,08,18,07,01,18.10
2008,08,18,07,02,18.00
2008,08,18,07,03,18.00
2008,08,18,07,04,17.90
2008,08,18,07,05,17.90
2008,08,18,07,06,17.80
2008,08,18,07,07,17.80
2008,08,18,07,08,17.80
2008,08,18,07,09,17.80
2008,08,18,07,10,17.80
2008,08,18,07,11,17.80
2008,08,18,07,12,17.80
2008,08,18,07,13,17.80
2008,08,18,07,14,17.80
2008,08,18,07,15,17.80
2008,08,18,07,16,17.80
2008,08,18,07,17,17.80
2008,08,18,07,18,17.80
2008,08,18,07,19,17.80
2008,08,18,07,20,17.90
2008,08,18,07,21,17.90
2008,08,18,07,22,17.90
2008,08,18,07,23,18.00
2008,08,18,07,24,18.00
2008,08,18,07,25,18.10
2008,08,18,07,26,18.10
2008,08,18,07,27,18.20
2008,08,18,07,28,18.20
2008,08,18,07,29,18.20
2008,08,18,07,30,18.20
2008,08,18,07,31,18.20
2008,08,18,07,32,18.20
2008,08,18,07,33,18.20
2008,08,18,07,34,18.20
2008,08,18,07,35,18.20
2008,08,18,07,36,18.20
2008,08,18,07,37,18.10
2008,08,18,07,38,18.10
2008,08,18,07,39,18.10
2008,08,18,07,40,18.10
2008,08,18,07,41,18.10
2008,08,18,07,42,18.10
2008,08,18,07,43,18.10
2008,08,18,07,44,18.10
2008,08,18,07,45,18.10
2008,08,18,07,46,18.10
2008,08,18,07,47,18.10
2008,08,18,07,48,18.10
2008,08,18,07,49,18.10
2008,08,18,07,50,18.10
2008,08,18,07,51,18.10
2008,08,18,07,52,18.10
2008,08,18,07,53,18.10
2008,08,18,07,54,18.10
2008,08,18,07,55,18.20
2008,08,18,07,56,18.20
2008,08,18,07,57,18.20
2008,08,18,07,58,18.20
2008,08,18,07,59,18.20
2008,08,18,08,00,18.20
2008,08,18,08,01,18.20
2008,08,18,08,02,18.20
2008,08,18,08,03,18.20
2008,08,18,08,04,18.20
2008,08,18,08,05,18.20
2008,08,18,08,06,18.20
2008,08,18,08,07,18.10
2008,08,18,08,08,18.10
2008,08,18,08,09,18.10
2008,08,18,08,10,18.10
2008,08,18,08,11,18.00
2008,08,18,08,12,18.00
2008,08,18,08,13,17.90
2008,08,18,08,14,17.90
2008,08,18,08,15,17.90
2008,08,18,08,16,17.80
2008,08,18,08,17,17.80
2008,08,18,08,18,17.80
2008,08,18,08,19,17.80
2008,08,18,08,20,17.80
2008,08,18,08,21,17.80
2008,08,18,08,22,17.80
2008,08,18,08,23,17.80
2008,08,18,08,24,17.80
2008,08,18,08,25,17.80
2008,08,18,08,26,17.80
2008,08,18,08,27,17.80
2008,08,18,08,28,17.80
2008,08,18,08,29,17.80
2008,08,18,08,30,17.80
2008,08,18,08,31,17.80
2008,08,18,08,32,17.80
2008,08,18,08,33,17.80
2008,08,18,08,34,17.80
2008,08,18,08,35,17.80
2008,08,18,08,36,17.80
2008,08,18,08,37,17.80
2008,08,18,08,38,17.90
2008,08,18,08,39,17.90
2008,08,18,08,40,17.90
2008,08,18,08,41,18.00
2008,08,18,08,42,18.00
2008,08,18,08,43,18.10
2008,08,18,08,44,18.10
2008,08,18,08,45,18.20
2008,08,18,08,46,18.20
2008,08,18,08,47,18.30
2008,08,18,08,48,18.30
2008,08,18,08,49,18.30
2008,08,18,08,50,18.40
2008,08,18,08,51,18.40
2008,08,18,08,52,18.50
2008,08,18,08,53,18.50
2008,08,18,08,54,18.50
2008,08,18,08,55,18.50
2008,08,18,08,56,18.50
2008,08,18,08,57,18.60
2008,08,18,08,58,18.60
2008,08,18,08,59,18.60
2008,08,18,09,00,18.70
2008,08,18,09,01,18.70
2008,08,18,09,02,18.70
2008,08,18,09,03,18.70
2008,08,18,09,04,18.80
2008,08,18,09,05,18.80
2008,08,18,09,06,18.80
2008,08,18,09,07,18.80
2008,08,18,09,08,18.80
2008,08,18,09,09,18.80
2008,08,18,09,10,18.90
2008,08,18,09,11,18.90
2008,08,18,09,12,18.90
2008,08,18,09,13,18.90
2008,08,18,09,14,18.90
2008,08,18,09,15,18.90
2008,08,18,09,16,18.80
2008,08,18,09,17,18.80
2008,08,18,09,18,18.90
2008,08,18,09,19,18.90
2008,08,18,09,20,18.90
2008,08,18,09,21,18.90
2008,08,18,09,22,18.80
2008,08,18,09,23,18.80
2008,08,18,09,24,18.80
2008,08,18,09,25,18.80
2008,08,18,09,26,18.70
2008,08,18,09,27,18.70
2008,08,18,09,28,18.60
2008,08,18,09,29,18.60
2008,08,18,09,30,18.50
2008,08,18,09,31,18.40
2008,08,18,09,32,18.40
2008,08,18,09,33,18.30
2008,08,18,09,34,18.30
2008,08,18,09,35,18.30
2008,08,18,09,36,18.20
2008,08,18,09,37,18.20
2008,08,18,09,38,18.20
2008,08,18,09,39,18.20
2008,08,18,09,40,18.20
2008,08,18,09,41,18.20
2008,08,18,09,42,18.20
2008,08,18,09,43,18.20
2008,08,18,09,44,18.20
2008,08,18,09,45,18.30
2008,08,18,09,46,18.30
2008,08,18,09,47,18.30
2008,08,18,09,48,18.50
2008,08,18,09,49,18.50
2008,08,18,09,50,18.50
2008,08,18,09,51,18.60
2008,08,18,09,52,18.60
2008,08,18,09,53,18.60
2008,08,18,09,54,18.70
2008,08,18,09,55,18.70
2008,08,18,09,56,18.80
2008,08,18,09,57,18.80
2008,08,18,09,58,18.80
2008,08,18,09,59,18.90
2008,08,18,10,00,18.90
2008,08,18,10,01,18.90
2008,08,18,10,02,18.90
2008,08,18,10,03,19.00
2008,08,18,10,04,19.00
2008,08,18,10,05,19.10
2008,08,18,10,06,19.10
2008,08,18,10,07,19.10
2008,08,18,10,08,19.10
2008,08,18,10,09,19.10
2008,08,18,10,10,19.10
2008,08,18,10,11,19.10
2008,08,18,10,12,19.10
2008,08,18,10,13,19.10
2008,08,18,10,14,19.20
2008,08,18,10,15,19.20
2008,08,18,10,16,19.20
2008,08,18,10,17,19.20
2008,08,18,10,18,19.20
2008,08,18,10,19,19.20
2008,08,18,10,20,19.30
2008,08,18,10,21,19.30
2008,08,18,10,22,19.30
2008,08,18,10,23,19.30
2008,08,18,10,24,19.40
2008,08,18,10,25,19.40
2008,08,18,10,26,19.40
2008,08,18,10,27,19.50
2008,08,18,10,28,19.50
2008,08,18,10,29,19.50
2008,08,18,10,30,19.50
2008,08,18,10,31,19.50
2008,08,18,10,32,19.50
2008,08,18,10,33,19.60
2008,08,18,10,34,19.70
2008,08,18,10,35,19.70
2008,08,18,10,36,19.80
2008,08,18,10,37,19.80
2008,08,18,10,38,19.80
2008,08,18,10,39,19.80
2008,08,18,10,40,19.80
2008,08,18,10,41,19.80
2008,08,18,10,42,19.90
2008,08,18,10,43,19.90
2008,08,18,10,44,19.90
2008,08,18,10,45,20.00
2008,08,18,10,46,20.00
2008,08,18,10,47,20.10
2008,08,18,10,48,20.20
2008,08,18,10,49,20.30
2008,08,18,10,50,20.40
2008,08,18,10,51,20.50
2008,08,18,10,52,20.60
2008,08,18,10,53,20.70
2008,08,18,10,54,20.80
2008,08,18,10,55,20.70
2008,08,18,10,56,20.70
2008,08,18,10,57,20.60
2008,08,18,10,58,20.60
2008,08,18,10,59,20.60
2008,08,18,11,00,20.70
2008,08,18,11,01,20.80
2008,08,18,11,02,20.80
2008,08,18,11,03,20.90
2008,08,18,11,04,20.90
2008,08,18,11,05,20.80
2008,08,18,11,06,20.80
2008,08,18,11,07,20.80
2008,08,18,11,08,20.80
2008,08,18,11,09,20.90
2008,08,18,11,10,20.80
2008,08,18,11,11,20.80
2008,08,18,11,12,20.70
2008,08,18,11,13,20.70
2008,08,18,11,14,20.60
2008,08,18,11,15,20.50
2008,08,18,11,16,20.30
2008,08,18,11,17,20.20
2008,08,18,11,18,20.30
2008,08,18,11,19,20.40
2008,08,18,11,20,20.50
2008,08,18,11,21,20.70
2008,08,18,11,22,20.80
2008,08,18,11,23,20.80
2008,08,18,11,24,20.90
2008,08,18,11,25,20.90
2008,08,18,11,26,20.90
2008,08,18,11,27,20.90
2008,08,18,11,28,21.00
2008,08,18,11,29,20.90
2008,08,18,11,30,20.90
2008,08,18,11,31,20.90
2008,08,18,11,32,20.80
2008,08,18,11,33,20.60
2008,08,18,11,34,20.50
2008,08,18,11,35,20.40
2008,08,18,11,36,20.30
2008,08,18,11,37,20.30
2008,08,18,11,38,20.20
2008,08,18,11,39,20.10
2008,08,18,11,40,20.00
2008,08,18,11,41,20.00
2008,08,18,11,42,19.90
2008,08,18,11,43,19.80
2008,08,18,11,44,19.80
2008,08,18,11,45,19.80
2008,08,18,11,46,19.80
2008,08,18,11,47,19.80
2008,08,18,11,48,19.90
2008,08,18,11,49,19.90
2008,08,18,11,50,19.90
2008,08,18,11,51,19.90
2008,08,18,11,52,19.80
2008,08,18,11,53,19.80
2008,08,18,11,54,19.80
2008,08,18,11,55,19.80
2008,08,18,11,56,19.80
2008,08,18,11,57,19.80
2008,08,18,11,58,19.90
2008,08,18,11,59,19.90
2008,08,18,12,00,19.90
2008,08,18,12,01,19.90
2008,08,18,12,02,19.90
2008,08,18,12,03,19.90
2008,08,18,12,04,19.90
2008,08,18,12,05,19.90
2008,08,18,12,06,19.90
2008,08,18,12,07,20.00
2008,08,18,12,08,20.00
2008,08,18,12,09,20.00
2008,08,18,12,10,20.10
2008,08,18,12,11,20.10
2008,08,18,12,12,20.10
2008,08,18,12,13,20.10
2008,08,18,12,14,20.00
2008,08,18,12,15,20.00
2008,08,18,12,16,19.80
2008,08,18,12,17,19.70
2008,08,18,12,18,19.60
2008,08,18,12,19,19.50
2008,08,18,12,20,19.50
2008,08,18,12,21,19.50
2008,08,18,12,22,19.50
2008,08,18,12,23,19.50
2008,08,18,12,24,19.40
2008,08,18,12,25,19.30
2008,08,18,12,26,19.30
2008,08,18,12,27,19.30
2008,08,18,12,28,19.30
2008,08,18,12,29,19.30
2008,08,18,12,30,19.30
2008,08,18,12,31,19.20
2008,08,18,12,32,19.20
2008,08,18,12,33,19.20
2008,08,18,12,34,19.10
2008,08,18,12,35,19.10
2008,08,18,12,36,19.10
2008,08,18,12,37,19.00
2008,08,18,12,38,19.00
2008,08,18,12,39,19.00
2008,08,18,12,40,19.00
2008,08,18,12,41,18.90
2008,08,18,12,42,18.80
2008,08,18,12,43,18.70
2008,08,18,12,44,18.70
2008,08,18,12,45,18.60
2008,08,18,12,46,18.50
2008,08,18,12,47,18.50
2008,08,18,12,48,18.40
2008,08,18,12,49,18.40
2008,08,18,12,50,18.40
2008,08,18,12,51,18.40
2008,08,18,12,52,18.30
2008,08,18,12,53,18.30
2008,08,18,12,54,18.30
2008,08,18,12,55,18.30
2008,08,18,12,56,18.30
2008,08,18,12,57,18.30
2008,08,18,12,58,18.20
2008,08,18,12,59,18.20
2008,08,18,13,00,18.20
2008,08,18,13,01,18.20
2008,08,18,13,02,18.20
2008,08,18,13,03,18.20
2008,08,18,13,04,18.30
2008,08,18,13,05,18.30
2008,08,18,13,06,18.30
2008,08,18,13,07,18.30
2008,08,18,13,08,18.30
2008,08,18,13,09,18.30
2008,08,18,13,10,18.30
2008,08,18,13,11,18.30
2008,08,18,13,12,18.30
2008,08,18,13,13,18.30
2008,08,18,13,14,18.30
2008,08,18,13,15,18.30
2008,08,18,13,16,18.30
2008,08,18,13,17,18.40
2008,08,18,13,18,18.40
2008,08,18,13,19,18.50
2008,08,18,13,20,18.60
2008,08,18,13,21,18.60
2008,08,18,13,22,18.60
2008,08,18,13,23,18.60
2008,08,18,13,24,18.60
2008,08,18,13,25,18.60
2008,08,18,13,26,18.70
2008,08,18,13,27,18.70
2008,08,18,13,28,18.80
2008,08,18,13,29,18.80
2008,08,18,13,30,18.80
2008,08,18,13,31,18.80
2008,08,18,13,32,18.80
2008,08,18,13,33,18.90
2008,08,18,13,34,18.90
2008,08,18,13,35,18.90
2008,08,18,13,36,19.00
2008,08,18,13,37,19.00
2008,08,18,13,38,18.90
2008,08,18,13,39,18.90
2008,08,18,13,40,19.00
2008,08,18,13,41,19.10
2008,08,18,13,42,19.10
2008,08,18,13,43,19.20
2008,08,18,13,44,19.20
2008,08,18,13,45,19.10
2008,08,18,13,46,19.20
2008,08,18,13,47,19.20
2008,08,18,13,48,19.30
2008,08,18,13,49,19.20
2008,08,18,13,50,19.20
2008,08,18,13,51,19.20
2008,08,18,13,52,19.20
2008,08,18,13,53,19.10
2008,08,18,13,54,19.20
2008,08,18,13,55,19.20
2008,08,18,13,56,19.30
2008,08,18,13,57,19.30
2008,08,18,13,58,19.30
2008,08,18,13,59,19.20
2008,08,18,14,00,19.20
2008,08,18,14,01,19.20
2008,08,18,14,02,19.20
2008,08,18,14,03,19.10
2008,08,18,14,04,19.10
2008,08,18,14,05,19.20
2008,08,18,14,06,19.30
2008,08,18,14,07,19.30
2008,08,18,14,08,19.40
2008,08,18,14,09,19.40
2008,08,18,14,10,19.50
2008,08,18,14,11,19.50
2008,08,18,14,12,19.40
2008,08,18,14,13,19.40
2008,08,18,14,14,19.40
2008,08,18,14,15,19.30
2008,08,18,14,16,19.10
2008,08,18,14,17,18.90
2008,08,18,14,18,18.80
2008,08,18,14,19,18.60
2008,08,18,14,20,18.60
2008,08,18,14,21,18.50
2008,08,18,14,22,18.50
2008,08,18,14,23,18.50
2008,08,18,14,24,18.40
2008,08,18,14,25,18.30
2008,08,18,14,26,18.30
2008,08,18,14,27,18.30
2008,08,18,14,28,18.30
2008,08,18,14,29,18.20
2008,08,18,14,30,18.20
2008,08,18,14,31,18.20
2008,08,18,14,32,18.20
2008,08,18,14,33,18.20
2008,08,18,14,34,18.20
2008,08,18,14,35,18.20
2008,08,18,14,36,18.20
2008,08,18,14,37,18.20
2008,08,18,14,38,18.30
2008,08,18,14,39,18.30
2008,08,18,14,40,18.30
2008,08,18,14,41,18.30
2008,08,18,14,42,18.30
2008,08,18,14,43,18.20
2008,08,18,14,44,18.20
2008,08,18,14,45,18.20
2008,08,18,14,46,18.10
2008,08,18,14,47,18.00
2008,08,18,14,48,17.80
2008,08,18,14,49,17.80
2008,08,18,14,50,17.70
2008,08,18,14,51,17.60
2008,08,18,14,52,17.60
2008,08,18,14,53,17.60
2008,08,18,14,54,17.60
2008,08,18,14,55,17.70
2008,08,18,14,56,17.70
2008,08,18,14,57,17.70
2008,08,18,14,58,17.70
2008,08,18,14,59,17.70
2008,08,18,15,00,17.70
2008,08,18,15,01,17.60
2008,08,18,15,02,17.60
2008,08,18,15,03,17.50
2008,08,18,15,04,17.40
2008,08,18,15,05,17.40
2008,08,18,15,06,17.40
2008,08,18,15,07,17.40
2008,08,18,15,08,17.40
2008,08,18,15,09,17.30
2008,08,18,15,10,17.30
2008,08,18,15,11,17.20
2008,08,18,15,12,17.10
2008,08,18,15,13,17.10
2008,08,18,15,14,17.00
2008,08,18,15,15,17.00
2008,08,18,15,16,17.00
2008,08,18,15,17,17.10
2008,08,18,15,18,17.10
2008,08,18,15,19,17.20
2008,08,18,15,20,17.20
2008,08,18,15,21,17.20
2008,08,18,15,22,17.20
2008,08,18,15,23,17.20
2008,08,18,15,24,17.20
2008,08,18,15,25,17.30
2008,08,18,15,26,17.30
2008,08,18,15,27,17.30
2008,08,18,15,28,17.20
2008,08,18,15,29,17.20
2008,08,18,15,30,17.20
2008,08,18,15,31,17.20
2008,08,18,15,32,17.30
2008,08,18,15,33,17.40
2008,08,18,15,34,17.40
2008,08,18,15,35,17.50
2008,08,18,15,36,17.50
2008,08,18,15,37,17.60
2008,08,18,15,38,17.60
2008,08,18,15,39,17.50
2008,08,18,15,40,17.50
2008,08,18,15,41,17.50
2008,08,18,15,42,17.60
2008,08,18,15,43,17.60
2008,08,18,15,44,17.70
2008,08,18,15,45,17.70
2008,08,18,15,46,17.80
2008,08,18,15,47,17.90
2008,08,18,15,48,17.90
2008,08,18,15,49,17.90
2008,08,18,15,50,17.90
2008,08,18,15,51,17.90
2008,08,18,15,52,17.80
2008,08,18,15,53,17.80
2008,08,18,15,54,17.70
2008,08,18,15,55,17.70
2008,08,18,15,56,17.70
2008,08,18,15,57,17.70
2008,08,18,15,58,17.80
2008,08,18,15,59,17.80
2008,08,18,16,00,17.70
2008,08,18,16,01,17.70
2008,08,18,16,02,17.80
2008,08,18,16,03,17.80
2008,08,18,16,04,17.90
2008,08,18,16,05,17.90
2008,08,18,16,06,18.00
2008,08,18,16,07,18.10
2008,08,18,16,08,18.30
2008,08,18,16,09,18.30
2008,08,18,16,10,18.30
2008,08,18,16,11,18.30
2008,08,18,16,12,18.20
2008,08,18,16,13,18.20
2008,08,18,16,14,18.10
2008,08,18,16,15,18.10
2008,08,18,16,16,18.10
2008,08,18,16,17,18.10
2008,08,18,16,18,18.20
2008,08,18,16,19,18.30
2008,08,18,16,20,18.30
2008,08,18,16,21,18.40
2008,08,18,16,22,18.50
2008,08,18,16,23,18.70
2008,08,18,16,24,18.70
2008,08,18,16,25,18.80
2008,08,18,16,26,18.80
2008,08,18,16,27,18.70
2008,08,18,16,28,18.60
2008,08,18,16,29,18.60
2008,08,18,16,30,18.50
2008,08,18,16,31,18.50
2008,08,18,16,32,18.40
2008,08,18,16,33,18.40
2008,08,18,16,34,18.50
2008,08,18,16,35,18.50
2008,08,18,16,36,18.50
2008,08,18,16,37,18.60
2008,08,18,16,38,18.60
2008,08,18,16,39,18.70
2008,08,18,16,40,18.80
2008,08,18,16,41,18.90
2008,08,18,16,42,19.00
2008,08,18,16,43,19.10
2008,08,18,16,44,19.10
2008,08,18,16,45,19.20
2008,08,18,16,46,19.30
2008,08,18,16,47,19.40
2008,08,18,16,48,19.30
2008,08,18,16,49,19.20
2008,08,18,16,50,19.10
2008,08,18,16,51,19.10
2008,08,18,16,52,19.00
2008,08,18,16,53,19.00
2008,08,18,16,54,18.90
2008,08,18,16,55,18.80
2008,08,18,16,56,18.80
2008,08,18,16,57,18.70
2008,08,18,16,58,18.70
2008,08,18,16,59,18.70
2008,08,18,17,00,18.60
2008,08,18,17,01,18.60
2008,08,18,17,02,18.70
2008,08,18,17,03,18.70
2008,08,18,17,04,18.70
2008,08,18,17,05,18.70
2008,08,18,17,06,18.70
2008,08,18,17,07,18.70
2008,08,18,17,08,18.70
2008,08,18,17,09,18.70
2008,08,18,17,10,18.70
2008,08,18,17,11,18.60
2008,08,18,17,12,18.60
2008,08,18,17,13,18.60
2008,08,18,17,14,18.70
2008,08,18,17,15,18.70
2008,08,18,17,16,18.70
2008,08,18,17,17,18.70
2008,08,18,17,18,18.70
2008,08,18,17,19,18.70